TimeCST,TemperatureF,Dew PointF,Humidity,Sea Level PressureIn,VisibilityMPH,Wind Direction,Wind SpeedMPH,Gust SpeedMPH,PrecipitationIn,Events,Conditions,WindDirDegrees,DateUTC
12:58 AM,21.0,19.9,96,30.33,10.0,SW,5.8,-,N/A,,Clear,230,2013-12-31 06:58:00
1:58 AM,21.2,19.0,91,30.34,10.0,SW,5.8,-,N/A,,Clear,230,2013-12-31 07:58:00
2:58 AM,20.5,18.7,93,30.33,10.0,WSW,6.9,-,N/A,,Clear,240,2013-12-31 08:58:00
3:58 AM,19.4,18.1,95,30.35,10.0,WSW,5.8,-,N/A,,Clear,250,2013-12-31 09:58:00
4:58 AM,23.0,20.1,89,30.37,10.0,WSW,10.4,-,N/A,,Clear,250,2013-12-31 10:58:00
5:58 AM,22.1,19.0,88,30.39,10.0,WSW,5.8,-,N/A,,Clear,250,2013-12-31 11:58:00
6:58 AM,20.8,18.0,89,30.42,10.0,WSW,4.6,-,N/A,,Clear,250,2013-12-31 12:58:00
7:58 AM,23.4,19.8,86,30.45,10.0,WSW,4.6,-,N/A,,Clear,240,2013-12-31 13:58:00
8:58 AM,27.9,23.0,82,30.46,10.0,WSW,3.5,-,N/A,,Clear,240,2013-12-31 14:58:00
9:58 AM,33.4,23.0,66,30.47,10.0,SSW,4.6,-,N/A,,Clear,200,2013-12-31 15:58:00
10:58 AM,35.4,21.6,57,30.45,10.0,SW,3.5,-,N/A,,Clear,230,2013-12-31 16:58:00
11:58 AM,37.6,21.7,53,30.44,10.0,ESE,3.5,-,N/A,,Clear,120,2013-12-31 17:58:00
12:58 PM,39.7,23.2,52,30.41,10.0,NW,4.6,-,N/A,,Clear,310,2013-12-31 18:58:00
1:58 PM,39.9,23.4,52,30.38,10.0,East,3.5,-,N/A,,Clear,80,2013-12-31 19:58:00
2:58 PM,40.6,22.8,49,30.37,10.0,Calm,Calm,-,N/A,,Clear,0,2013-12-31 20:58:00
3:58 PM,40.6,21.9,47,30.39,10.0,SSE,2.3,-,N/A,,Clear,150,2013-12-31 21:58:00
4:58 PM,38.5,22.5,53,30.36,10.0,SE,2.3,-,N/A,,Clear,140,2013-12-31 22:58:00
5:58 PM,36.1,22.8,58,30.36,10.0,South,5.8,-,N/A,,Clear,170,2013-12-31 23:58:00
6:58 PM,36.1,22.1,57,30.37,10.0,South,6.9,-,N/A,,Clear,170,2014-01-01 00:58:00
7:58 PM,35.8,21.6,56,30.36,10.0,South,5.8,-,N/A,,Clear,180,2014-01-01 01:58:00
8:58 PM,33.8,22.1,62,30.36,10.0,South,6.9,-,N/A,,Clear,170,2014-01-01 02:58:00
9:58 PM,34.0,22.8,64,30.35,10.0,South,6.9,-,N/A,,Clear,190,2014-01-01 03:58:00
10:58 PM,32.4,22.8,68,30.35,10.0,South,4.6,-,N/A,,Clear,180,2014-01-01 04:58:00
11:58 PM,31.8,23.9,73,30.33,10.0,South,4.6,-,N/A,,Clear,180,2014-01-01 05:58:00